Theta_e
319 318 319 319 322 323 324 330 325 324 325 321 320 320 316 317 316 315 316 315 316 318 316 319 318 315 319 318 318 320 319 323 322 318 319 326 331 334 338 337 338 340 338 340 339 339 338 338 338 337 338 338 339 338 338 338 336 334 334 336 338 337 337 337 337 335 334 334 333 332 332 331 325 323 325 325 322 319 314 307 309 314 318 323 326 328 329 329 329 330 330 330 330 331 332 332 332
319 319 320 320 321 321 325 329 327 325 324 316 317 321 316 316 316 316 322 316 317 321 321 325 325 321 324 323 320 322 321 324 323 321 325 328 333 336 338 337 338 340 339 340 339 339 339 338 338 336 337 338 339 338 338 338 338 335 333 335 336 336 335 336 335 334 333 333 333 333 333 331 325 322 325 326 322 320 315 307 309 314 316 322 326 328 329 329 329 329 329 329 330 331 332 331 331
320 321 321 321 321 321 331 328 322 325 324 318 320 323 316 316 318 319 321 315 318 319 319 321 323 320 321 324 322 322 322 324 326 324 326 330 333 335 337 335 337 340 339 341 340 340 340 338 338 337 337 338 339 338 338 337 338 336 333 335 336 335 334 334 335 334 334 333 333 333 333 330 325 323 327 326 322 319 314 309 312 316 319 324 326 327 328 329 329 329 329 329 331 332 331 330 329
320 321 320 323 324 327 346 336 326 328 325 321 320 322 322 321 320 319 317 315 318 316 315 318 322 317 317 324 321 320 325 325 328 328 328 330 333 335 336 335 338 340 340 342 340 340 340 339 338 337 338 338 339 339 338 338 338 334 332 334 333 331 332 333 334 334 333 333 333 332 333 330 324 325 328 327 322 319 313 308 313 318 322 325 326 327 328 328 328 328 328 329 330 331 330 328 328
319 320 319 324 328 328 337 329 325 326 319 322 320 322 329 325 318 318 315 313 315 314 315 319 323 317 317 326 322 322 326 322 323 327 329 331 334 335 336 336 337 339 341 341 340 341 340 340 339 338 338 338 339 338 338 337 337 332 328 328 329 329 332 332 332 331 331 332 333 333 333 329 325 327 329 326 322 318 313 307 310 318 322 325 326 328 328 328 328 327 327 329 330 329 328 327 327
319 318 318 320 320 317 323 320 319 320 318 323 321 321 327 323 318 318 315 311 313 312 313 317 322 322 323 326 323 324 324 323 325 327 329 332 335 336 337 336 337 339 340 341 341 341 340 340 339 338 338 339 339 338 337 337 336 334 329 326 329 333 333 330 328 328 330 332 333 333 331 328 327 329 329 326 321 317 312 306 308 315 321 325 327 327 328 328 328 327 327 329 329 328 327 327 327
320 320 323 322 318 319 327 325 322 322 317 316 318 319 322 321 317 316 313 312 314 312 315 320 321 321 322 321 320 323 324 327 327 329 330 333 335 336 338 338 339 339 340 342 341 341 340 340 339 339 338 339 338 338 338 337 336 336 333 328 330 333 333 331 328 328 331 333 332 332 331 329 329 329 329 326 321 317 312 306 306 313 319 324 326 327 327 328 328 327 327 328 328 327 327 327 327
321 322 326 330 329 329 333 326 322 322 315 312 314 317 319 319 315 315 314 314 314 313 320 323 318 318 317 316 321 323 322 327 328 331 331 333 335 336 339 340 340 339 341 341 340 341 341 340 340 340 339 339 339 338 338 337 336 336 336 331 330 332 333 333 331 331 332 333 332 332 332 331 330 330 330 325 321 318 312 306 306 312 318 324 326 326 327 327 327 327 327 327 327 326 326 326 326
316 318 325 332 331 330 330 321 317 318 317 315 314 316 319 316 313 313 314 314 312 316 323 321 316 315 316 319 323 320 320 327 330 332 331 334 335 336 339 341 342 339 340 341 340 341 341 341 340 340 340 340 339 339 339 338 337 336 337 335 332 332 333 333 332 332 332 332 332 332 332 332 331 331 330 326 322 318 312 306 305 307 314 323 326 325 326 326 326 326 327 326 325 325 325 326 326
317 318 324 331 329 325 322 317 318 318 316 317 314 315 317 313 312 312 314 313 313 320 322 316 316 316 317 322 323 319 321 328 331 332 331 335 335 336 338 339 340 339 339 340 340 340 340 341 340 341 340 340 339 339 339 338 337 336 337 336 335 334 334 333 333 333 332 332 332 332 332 332 332 331 330 327 322 319 314 308 307 305 306 318 324 324 325 325 325 324 325 324 324 324 325 325 325
325 325 329 335 330 321 319 319 321 323 319 317 315 316 316 312 313 314 314 313 313 318 317 314 319 321 320 321 321 317 319 327 332 333 331 333 335 336 336 338 340 339 339 339 339 340 340 341 341 341 339 340 339 339 339 338 337 337 337 336 336 335 334 333 332 333 333 332 331 332 332 332 332 331 331 327 323 320 316 311 308 304 302 310 317 319 321 322 323 323 323 323 323 323 323 323 322
326 330 339 338 328 322 323 323 320 328 329 319 315 316 312 310 313 314 315 315 314 317 316 314 317 319 322 324 318 312 315 327 333 332 332 332 334 336 336 338 340 339 338 339 340 340 340 340 341 341 340 340 340 339 339 338 338 337 337 336 336 335 335 334 332 333 333 332 331 332 332 332 332 332 331 328 324 321 318 315 310 305 302 303 308 312 315 318 320 320 319 318 318 317 316 315 314
331 333 340 327 319 323 323 321 319 325 327 320 316 311 308 310 313 315 317 317 315 317 315 312 313 314 320 322 313 309 314 325 332 333 332 332 334 335 337 337 339 339 338 338 339 340 341 340 340 340 340 339 340 340 339 339 338 337 337 336 336 335 335 334 332 333 333 332 332 332 331 331 331 331 331 329 325 323 320 319 316 312 306 302 302 305 308 310 312 313 312 311 310 308 305 303 303
332 332 337 324 313 320 322 320 319 318 319 321 318 310 308 311 313 315 316 317 317 317 311 307 312 316 316 316 313 311 313 323 332 334 332 334 334 335 337 337 337 338 338 338 339 340 340 339 340 340 341 340 339 339 339 339 338 337 337 337 337 335 334 334 332 332 333 332 332 331 331 330 331 331 331 329 326 324 322 321 320 317 314 309 305 303 301 302 304 305 306 305 304 302 300 299 298
325 327 332 328 316 318 320 318 320 319 320 321 314 311 312 311 310 314 315 317 316 311 308 307 310 314 315 316 316 312 311 323 331 333 334 334 333 336 338 336 335 336 338 339 340 341 340 339 339 339 339 339 339 339 339 339 339 338 337 337 337 335 334 333 333 332 332 333 331 330 330 329 330 331 331 330 327 325 323 323 322 320 318 316 313 311 306 301 300 301 302 301 301 300 299 299 299
318 328 334 329 319 317 316 316 319 319 321 320 312 311 314 311 308 313 311 311 314 308 309 313 309 311 315 314 313 308 311 324 330 332 335 335 333 336 338 336 335 336 338 339 339 338 338 340 339 338 339 339 339 338 339 339 339 338 337 337 336 336 334 333 333 333 333 332 331 330 329 329 330 330 330 330 328 326 324 324 323 321 319 318 317 316 313 308 303 302 301 300 300 299 299 299 299
320 335 338 326 321 320 317 316 318 320 322 319 312 311 315 314 310 311 306 306 315 312 312 314 307 308 312 311 308 305 313 324 329 331 333 334 334 334 336 337 335 335 336 336 337 336 336 338 338 337 337 338 338 337 338 339 339 338 337 336 336 336 334 334 334 333 333 332 331 330 329 328 328 330 331 331 329 326 324 324 324 322 320 319 318 316 315 313 310 308 307 306 305 303 301 300 300
333 339 331 323 324 324 322 318 316 320 321 316 313 314 316 316 313 310 309 312 317 314 314 313 309 308 308 308 308 307 316 324 325 329 330 331 332 332 333 335 335 334 333 335 336 335 335 336 336 334 333 335 338 337 337 338 338 338 338 337 336 335 334 334 334 333 333 332 332 331 330 328 328 329 331 330 329 327 325 324 324 323 321 320 319 317 316 314 313 312 311 311 310 308 306 305 304
335 333 325 330 331 321 319 318 314 316 317 317 314 313 314 315 314 311 312 318 317 314 316 315 314 313 309 308 309 310 318 324 323 326 328 328 331 330 330 332 335 335 333 335 336 335 335 336 336 333 333 335 337 338 337 338 338 337 338 338 336 335 335 335 334 332 333 333 332 331 330 329 328 329 330 329 329 327 325 324 324 324 323 322 321 319 317 315 314 314 313 313 313 312 311 309 308
324 325 326 333 330 319 316 318 317 315 314 318 315 311 313 313 312 312 314 319 317 317 319 315 316 318 315 311 308 312 319 323 322 325 326 327 330 330 331 331 333 335 334 333 334 335 334 334 334 333 333 334 336 337 336 338 339 337 337 338 337 336 335 334 333 331 332 333 332 331 330 329 328 329 329 328 327 328 326 325 325 324 324 323 322 320 318 317 316 316 315 316 315 315 314 313 312
318 322 326 325 321 318 316 317 319 316 313 316 317 313 313 312 311 313 315 317 317 319 319 315 318 319 318 314 308 312 319 320 321 323 324 324 327 328 330 331 332 334 333 333 333 334 332 332 332 331 332 334 335 334 334 337 339 337 334 336 338 336 335 334 332 331 332 333 332 331 330 330 329 328 328 328 327 327 326 325 324 324 324 324 323 322 320 319 318 318 318 318 317 316 316 315 314
316 316 318 319 318 317 316 316 317 315 312 315 317 314 313 311 311 315 316 316 318 319 318 316 317 314 314 314 309 311 315 318 319 319 320 322 323 326 328 330 330 331 331 332 332 332 331 331 331 330 332 334 332 332 334 337 337 336 333 335 337 336 336 335 333 331 331 331 331 331 331 330 329 328 327 328 328 327 327 326 324 325 325 324 323 322 321 321 320 319 319 319 318 317 317 316 315
318 316 313 317 318 315 315 314 314 313 314 317 317 314 313 313 313 315 315 315 317 315 312 313 312 307 307 310 310 311 314 315 318 318 318 320 321 324 327 328 329 328 329 329 328 329 328 328 328 329 331 332 330 331 334 336 336 334 332 333 336 336 336 336 335 333 331 330 330 329 330 330 329 329 328 327 328 327 327 326 325 325 325 324 323 322 321 321 321 320 320 318 318 318 317 316 315
322 319 314 315 314 314 314 313 312 312 316 316 314 312 313 317 315 311 314 315 316 311 304 304 304 301 304 310 312 311 311 313 316 318 318 319 320 322 324 326 327 327 327 327 327 327 326 327 326 326 328 329 330 331 334 334 334 333 331 332 335 335 335 336 336 334 333 331 330 330 329 329 328 329 329 328 328 328 328 327 325 325 325 325 322 322 322 321 321 321 319 318 317 317 316 315 314
322 318 316 316 314 314 314 313 314 314 315 313 312 314 315 316 311 311 316 316 316 311 305 305 304 305 309 315 316 309 308 311 313 316 317 318 318 318 320 322 322 322 323 324 324 324 324 324 325 325 326 327 329 330 332 331 332 332 331 333 334 332 333 336 336 335 334 333 332 331 331 330 329 329 331 330 329 328 328 328 326 325 325 325 323 321 321 321 321 320 319 319 317 315 315 314 313
317 318 318 317 315 315 314 314 317 316 314 312 313 316 314 311 310 314 318 316 316 312 313 316 314 319 321 318 314 308 308 309 310 313 316 317 317 316 317 317 318 318 319 319 319 319 319 319 320 321 323 324 326 328 328 328 328 329 330 333 334 332 333 335 336 335 334 334 333 332 332 331 330 329 330 331 330 329 329 328 327 326 325 325 324 321 321 321 320 319 319 319 317 315 313 312 312
316 320 319 317 318 316 314 315 317 316 315 314 314 317 314 310 311 316 318 314 313 315 319 319 319 325 324 317 311 307 308 308 309 311 313 315 315 316 316 316 316 316 316 316 315 315 315 315 315 315 317 319 322 324 325 326 327 328 331 333 331 332 334 334 333 333 334 334 334 333 332 331 330 330 329 329 330 330 329 328 327 327 326 326 325 322 320 321 319 318 318 318 317 315 312 311 311
315 320 318 319 322 316 315 317 316 315 315 314 314 315 315 312 313 317 317 310 309 316 322 321 322 325 320 317 312 307 306 308 309 309 311 313 314 316 317 317 316 316 316 315 315 314 314 313 313 313 313 314 318 322 324 326 328 329 332 332 331 332 334 333 331 331 332 335 335 334 332 331 330 330 330 330 330 330 329 328 328 327 326 326 325 323 320 320 319 317 317 317 316 314 312 309 308
314 318 317 321 327 320 315 316 315 315 315 314 314 315 317 315 314 317 316 310 309 315 322 322 322 322 317 315 312 308 305 307 308 308 310 311 313 316 316 318 317 316 316 315 314 313 313 312 311 311 312 313 315 320 323 324 327 329 331 330 331 333 334 333 330 330 332 334 334 333 333 332 330 329 331 331 330 329 329 329 328 327 327 326 325 323 320 319 319 317 316 316 314 313 311 307 306
316 317 318 323 327 321 314 314 314 314 314 314 314 317 324 324 318 316 312 311 313 316 320 320 320 319 316 314 312 310 305 305 307 307 309 311 312 313 314 316 316 315 315 314 313 312 312 311 310 310 313 316 315 319 323 323 325 329 330 328 328 332 333 332 330 330 332 333 333 333 332 332 331 330 331 332 329 328 328 328 328 328 327 325 324 322 320 319 319 318 316 314 313 312 310 305 305
319 314 322 326 319 321 319 314 315 313 313 312 313 317 323 326 323 316 310 309 313 317 319 317 318 317 314 312 311 311 306 304 306 307 309 310 311 312 313 314 314 314 313 313 313 312 311 309 309 311 314 316 316 319 322 323 326 328 330 329 327 331 331 329 329 330 330 331 332 331 331 331 330 331 332 331 329 329 328 327 327 327 326 325 323 322 320 319 318 318 316 315 312 310 307 303 303
324 313 324 326 316 327 326 315 316 315 312 311 313 318 320 320 320 314 308 307 310 315 318 315 316 316 312 311 310 310 307 304 305 306 308 309 310 311 311 312 312 313 312 312 312 311 310 309 310 312 314 315 316 320 322 322 326 328 329 328 328 331 330 328 328 330 330 331 331 331 330 330 330 331 330 330 329 329 328 327 326 325 325 325 323 321 320 319 318 316 315 316 314 308 305 303 302
329 317 322 326 318 326 323 313 314 314 313 312 313 318 321 320 318 314 307 308 311 316 319 317 316 313 310 309 308 308 307 305 305 305 306 308 309 310 311 312 312 312 312 312 312 310 309 309 312 313 314 316 316 319 322 323 326 327 327 326 326 329 329 328 328 330 331 330 331 331 330 330 330 330 329 328 328 328 328 328 325 324 324 324 323 321 320 319 319 317 313 314 315 308 303 302 300
328 319 320 325 321 320 319 318 314 311 313 314 313 315 317 318 318 316 312 311 314 319 321 320 315 311 309 308 306 306 306 307 307 305 306 307 308 309 310 311 311 311 311 311 311 309 309 311 313 314 315 316 317 319 322 324 325 326 325 325 325 327 328 327 327 329 330 330 329 328 329 329 329 328 327 327 328 327 327 327 326 324 324 324 323 321 320 319 318 318 314 310 311 309 305 302 300
327 326 323 323 320 317 321 324 315 311 313 315 316 315 315 314 314 314 314 314 317 317 317 315 313 311 309 308 307 306 305 306 306 305 305 306 307 308 309 310 310 310 310 311 310 308 309 312 313 315 317 317 318 320 322 324 324 324 324 325 325 325 326 326 326 328 328 328 326 325 326 326 327 327 326 326 327 327 327 327 325 323 323 322 322 321 319 319 317 317 316 310 307 307 305 302 298
326 333 335 328 322 320 323 325 318 312 313 317 317 316 316 314 314 313 314 316 316 315 313 311 310 310 309 308 307 307 306 307 305 304 305 305 306 307 308 310 310 310 310 310 310 308 309 312 314 315 317 318 319 320 321 322 322 322 322 323 323 324 325 325 326 327 327 327 325 324 324 324 325 325 325 325 326 326 325 325 324 322 322 321 321 320 318 318 317 316 315 311 306 302 300 299 297
324 331 333 327 322 323 324 323 318 312 314 320 318 315 316 314 313 313 312 314 315 315 315 312 310 309 309 309 309 308 307 306 304 303 304 305 305 305 307 308 309 309 310 310 310 308 310 312 314 314 316 318 318 319 320 321 321 320 321 321 321 323 324 324 325 326 325 325 324 323 323 324 324 323 323 324 324 324 323 323 322 321 320 320 320 320 318 317 316 315 312 310 306 299 295 293 295
327 326 323 324 323 325 323 318 317 314 315 321 320 316 317 314 313 312 310 313 314 313 314 313 312 310 309 310 309 309 308 306 305 304 303 303 304 305 305 307 308 309 310 310 309 309 310 312 313 314 316 317 318 318 319 320 321 321 321 321 322 323 322 322 323 323 323 323 323 323 322 323 323 322 322 322 322 323 322 321 321 320 320 320 319 318 317 316 314 314 311 305 302 299 294 292 293
330 325 319 323 324 322 319 315 315 314 314 322 324 318 316 314 313 313 312 312 312 312 312 313 313 312 311 310 310 309 308 308 307 305 302 302 303 304 304 306 307 309 310 309 309 309 310 311 313 313 315 316 317 318 319 319 320 321 321 321 321 322 321 321 322 322 321 321 321 322 322 323 322 321 321 320 321 321 321 321 320 321 321 320 319 316 314 314 313 312 310 304 299 296 293 292 294
326 325 322 325 323 320 318 316 315 314 313 318 322 317 314 314 314 314 313 313 312 311 310 311 310 311 311 311 311 310 310 310 309 307 303 301 302 303 303 305 306 308 309 309 309 309 309 310 311 312 313 315 316 316 316 317 317 318 319 318 320 321 320 319 320 320 319 319 320 321 322 322 322 321 320 320 320 320 320 321 320 320 319 317 317 315 312 312 311 309 307 306 302 296 292 292 295
323 323 323 325 324 321 319 318 318 318 316 314 316 319 321 320 319 319 320 320 318 314 313 313 311 309 309 310 310 309 310 309 309 309 306 301 300 301 302 304 305 307 308 308 309 309 309 309 309 310 312 314 314 315 315 315 316 316 316 315 315 315 314 314 316 317 317 318 319 321 321 321 321 320 320 320 320 320 319 320 320 319 316 313 313 312 311 310 309 308 306 305 305 301 296 294 295
324 323 322 322 323 321 319 320 320 323 325 317 315 322 329 330 328 325 326 326 321 318 318 318 316 313 311 311 310 309 309 308 308 308 307 302 300 300 302 303 304 306 308 308 308 308 308 308 308 309 312 313 313 314 315 315 316 317 316 314 311 310 309 311 315 317 317 318 319 320 320 320 320 320 320 320 319 319 318 318 318 317 313 309 307 306 307 308 307 306 306 305 304 303 301 298 295
324 321 319 317 317 319 319 320 320 325 328 317 313 320 325 327 324 320 324 324 320 318 318 318 316 315 315 314 313 311 310 309 309 307 306 303 300 300 301 302 304 305 307 308 308 308 307 308 309 309 311 312 312 313 314 315 315 316 317 317 315 314 313 314 318 319 319 319 319 319 319 319 319 319 319 319 317 317 316 316 315 312 308 304 302 302 304 306 306 306 305 304 303 302 302 301 298
326 318 318 318 317 320 321 319 320 324 324 317 317 321 322 323 320 320 326 325 321 320 319 317 316 314 314 315 313 313 312 311 311 309 307 303 300 300 301 301 303 305 307 308 307 307 307 308 310 310 311 311 311 312 313 314 315 315 317 317 317 317 317 318 319 317 318 318 318 318 318 318 318 318 317 316 315 314 314 314 310 305 301 300 300 301 303 304 305 305 303 303 302 301 301 302 300
323 314 316 319 320 324 323 323 323 322 322 320 320 320 321 326 326 326 326 322 320 321 319 318 317 316 315 315 315 314 314 312 311 310 307 303 300 300 301 301 303 304 306 308 307 307 307 308 309 310 309 310 311 311 312 313 313 314 315 315 315 314 314 316 317 315 316 316 316 317 317 317 317 316 315 312 311 311 311 309 304 299 298 299 300 301 302 303 304 304 303 302 302 301 301 302 301
315 309 315 317 319 322 323 326 325 326 326 322 321 321 319 325 331 328 322 320 321 319 319 319 318 319 317 317 317 317 319 316 312 309 304 300 300 301 301 301 302 303 305 307 308 307 307 307 307 307 307 309 310 311 311 311 311 312 312 312 312 312 311 312 313 311 310 312 314 315 316 316 315 314 311 309 308 307 304 301 298 296 296 297 299 301 302 303 303 303 302 302 302 301 301 301 300
311 316 322 322 323 323 324 326 323 328 330 320 320 323 317 321 331 329 319 320 326 322 322 323 322 327 327 323 322 322 324 320 314 310 302 298 300 301 300 301 302 303 305 307 307 307 307 306 306 306 306 308 310 310 310 311 311 311 310 310 311 311 311 310 309 307 307 309 311 313 313 313 313 311 309 306 304 301 298 296 295 294 294 295 297 299 301 302 302 302 302 302 300 298 297 297 298
316 328 329 324 326 324 324 326 324 327 328 320 318 320 318 321 327 327 320 317 321 321 324 326 326 333 332 328 328 326 322 319 315 313 306 300 300 300 299 300 302 303 305 306 306 306 306 306 305 306 305 306 308 310 310 310 310 310 309 310 310 310 311 311 310 310 309 311 312 311 310 309 308 307 305 303 300 297 295 294 293 293 293 293 294 296 297 298 299 299 298 297 295 293 293 294 293
320 329 326 322 325 323 323 328 326 327 323 316 315 317 318 320 320 320 319 316 316 316 318 321 323 328 326 323 327 326 321 319 317 315 311 305 301 299 298 300 302 304 305 305 306 306 306 306 305 305 304 304 306 307 308 308 309 309 309 308 308 308 309 310 311 311 312 312 312 312 309 307 307 305 302 301 298 295 293 292 292 292 292 292 292 293 293 294 294 294 293 292 291 291 291 291 291
320 324 324 324 325 324 325 327 322 321 319 313 311 317 319 320 321 320 317 315 315 314 315 317 317 320 319 316 319 321 319 318 317 315 312 308 301 298 298 300 301 303 305 305 305 305 305 305 304 304 304 303 303 305 305 305 306 307 307 307 306 307 307 308 309 311 312 312 312 314 312 310 310 307 304 302 297 293 292 292 292 292 292 292 292 292 292 291 292 291 291 291 290 290 290 290 290
319 321 322 324 326 325 326 329 326 322 323 317 311 316 324 325 324 322 318 317 317 317 317 315 313 313 313 313 315 317 318 316 315 313 310 304 298 297 298 300 301 303 304 305 305 304 304 304 304 304 303 302 302 303 303 303 304 305 305 305 304 306 307 308 309 310 311 311 312 314 312 311 311 309 307 303 295 291 291 291 291 291 291 291 291 291 291 291 291 291 291 290 290 290 290 289 289
318 320 320 321 324 324 320 319 321 322 325 323 318 320 325 325 322 320 320 322 323 321 316 316 317 314 312 314 316 315 315 314 314 314 310 302 297 297 298 299 301 303 304 305 304 304 304 303 303 303 303 302 301 302 302 303 303 303 303 303 304 305 306 306 307 308 309 309 311 313 312 311 310 308 306 301 293 290 291 290 290 291 291 291 291 291 291 291 291 290 290 290 289 289 288 288 288
318 318 320 319 319 326 323 314 312 315 318 322 323 322 322 321 320 320 321 325 327 323 320 323 322 316 315 318 318 316 316 316 316 315 310 302 297 297 298 299 300 302 303 304 304 304 304 303 302 302 302 301 301 301 302 302 302 302 302 303 304 305 306 306 307 307 307 307 308 309 309 307 306 306 304 298 291 290 290 290 290 290 290 290 290 290 290 290 290 289 289 289 288 288 287 287 287
319 321 321 316 315 323 327 320 319 321 322 324 324 321 319 319 321 321 319 319 321 321 322 323 321 319 321 321 318 317 319 319 318 315 307 300 296 296 297 298 300 301 303 304 304 304 304 303 303 302 301 301 301 301 301 301 301 302 302 303 303 304 305 305 306 306 305 305 305 305 305 303 302 302 300 294 290 290 290 289 290 290 290 290 290 289 289 289 289 288 288 288 287 287 286 286 286
318 321 319 318 322 324 323 322 324 324 324 329 328 322 317 318 322 322 319 321 323 322 321 320 320 321 319 319 317 315 318 322 321 319 312 301 296 296 297 298 299 301 302 303 304 304 303 303 302 302 301 301 301 301 300 300 301 302 302 303 303 303 303 304 304 303 302 302 303 304 303 301 299 298 295 291 290 290 289 289 289 289 289 289 289 289 288 288 288 287 287 287 286 286 286 286 285
314 315 314 317 323 324 322 322 322 322 324 327 330 326 320 319 325 324 320 324 327 325 324 324 325 324 319 322 325 318 318 325 324 323 320 306 296 296 297 298 299 300 301 303 303 303 303 303 302 302 301 300 300 300 299 299 300 301 301 301 301 302 302 304 304 303 302 302 303 303 302 300 298 295 292 290 290 289 289 289 289 289 289 288 288 288 287 287 287 287 287 286 286 285 285 286 285
315 317 317 317 319 320 322 321 319 323 328 328 329 326 318 319 324 324 321 323 323 324 328 329 331 330 326 328 329 321 319 324 324 324 322 309 296 295 297 298 299 299 300 301 302 303 302 302 301 301 301 300 299 299 299 299 299 300 300 300 300 301 302 302 302 302 302 302 301 300 299 297 295 292 290 290 290 289 289 289 288 288 288 288 288 287 287 287 287 286 286 286 286 285 285 285 285
316 317 318 317 318 319 319 319 318 321 324 325 326 322 316 320 322 320 322 325 320 320 323 325 330 334 336 335 328 321 321 325 324 323 322 308 295 294 296 297 298 298 299 300 301 302 302 301 301 301 301 300 299 299 298 298 298 299 299 299 301 302 301 300 300 300 300 299 298 297 296 294 292 290 290 289 289 289 289 288 288 288 288 287 287 287 287 286 286 286 286 286 285 285 285 285 285
Wind_Speed
6 6 3 2 1 2 3 5 2 2 3 2 1 1 2 1 0 1 2 1 1 1 2 1 2 3 3 2 3 4 3 2 3 2 1 1 2 7 10 6 8 15 15 13 12 12 13 14 15 14 14 14 13 13 14 14 14 12 12 12 13 14 15 15 15 15 16 15 15 15 16 17 19 20 20 21 21 20 20 19 19 19 19 19 20 20 20 20 19 19 19 19 18 18 18 18 18
5 4 1 3 3 0 1 3 2 2 4 1 2 2 2 1 1 3 4 3 2 1 2 3 4 4 4 3 3 3 1 1 2 1 1 1 3 6 9 7 10 15 15 15 14 13 13 13 14 15 15 13 13 14 13 13 13 11 11 12 13 14 14 14 14 15 15 16 15 15 15 17 18 18 19 20 20 20 19 19 19 19 19 19 20 21 20 20 20 19 19 19 19 18 18 18 17
4 2 2 2 4 3 2 3 2 0 3 1 3 2 1 1 3 4 5 4 4 2 2 3 3 2 3 3 1 1 1 1 2 1 1 3 3 5 8 9 12 14 15 15 14 13 14 14 14 15 15 13 13 14 13 13 12 10 12 13 13 14 14 14 14 14 15 16 15 15 15 16 17 18 18 18 19 19 18 19 19 19 19 19 20 20 20 20 20 20 20 20 20 19 18 17 17
4 2 1 2 2 4 3 3 2 2 2 2 2 3 2 3 4 4 3 3 4 2 1 1 1 1 1 1 1 0 0 1 2 2 1 3 3 4 7 10 13 14 14 14 14 14 14 14 14 14 14 14 13 13 13 12 11 10 12 14 14 14 14 14 14 14 14 15 15 14 14 15 16 17 18 18 18 18 17 18 19 19 19 19 20 20 20 21 20 20 20 20 19 18 17 17 18
4 4 2 2 3 2 3 3 2 2 1 3 1 3 3 4 4 3 1 2 3 1 1 2 1 1 0 1 1 1 1 1 1 2 3 5 5 4 7 11 13 14 14 13 14 13 13 13 13 14 13 13 13 12 12 12 11 10 12 15 15 15 15 14 14 14 14 15 14 14 13 13 15 16 17 18 18 17 17 17 19 19 19 19 20 20 20 21 21 21 21 20 19 18 18 18 18
5 9 8 7 4 1 3 3 2 1 3 3 2 3 4 4 5 4 1 1 3 2 2 1 1 2 1 1 1 1 1 2 1 2 4 6 6 6 8 12 12 14 14 12 13 13 13 13 11 13 13 12 12 12 12 12 12 11 11 13 15 14 13 13 13 13 14 14 13 13 12 12 14 15 16 18 17 17 17 17 18 19 19 19 20 20 21 21 21 21 21 20 19 18 19 18 19
3 4 6 7 3 1 3 2 3 1 1 3 1 3 3 4 4 4 2 1 1 1 1 1 1 3 1 1 1 2 2 1 2 3 4 6 8 7 9 12 12 14 15 12 13 14 13 13 12 12 12 12 12 12 12 12 12 12 11 12 14 14 12 11 11 12 12 12 12 12 12 12 13 14 16 17 17 17 16 17 18 18 19 20 20 20 20 21 21 21 20 20 19 19 19 18 19
3 1 1 4 2 3 3 2 3 1 0 2 3 3 3 4 4 5 4 2 2 1 0 1 1 2 1 1 1 2 2 2 3 4 5 7 8 9 9 11 11 14 16 13 12 13 13 13 13 12 12 12 12 12 13 13 13 12 12 12 13 13 12 11 11 11 11 11 11 11 12 13 13 14 15 17 17 17 16 17 17 18 19 20 20 20 20 21 21 21 20 19 18 18 18 18 18
6 3 1 4 3 3 2 1 1 2 2 3 3 4 2 3 3 4 4 2 1 2 2 3 1 1 1 1 1 2 2 4 4 4 6 8 9 10 10 11 11 12 16 14 11 12 13 13 14 14 13 12 12 12 12 13 13 13 13 13 13 12 11 11 11 11 11 11 10 10 12 12 12 13 15 16 17 16 16 17 17 17 18 20 20 20 20 21 21 20 19 17 17 17 17 18 18
6 3 2 3 3 2 2 0 1 1 3 4 3 5 3 4 3 2 3 2 1 3 2 2 1 1 3 2 1 1 4 6 6 5 5 8 9 10 12 12 11 11 14 14 12 12 13 12 13 13 14 13 12 12 11 12 12 12 12 13 13 11 11 10 10 10 10 10 10 10 11 12 12 12 14 15 16 16 16 17 18 17 18 20 20 20 20 20 20 19 18 17 17 17 17 17 17
4 3 2 3 3 2 2 2 3 2 4 3 3 5 4 5 4 2 1 1 1 2 2 2 2 3 3 1 1 2 6 8 8 7 6 9 9 10 13 14 13 11 12 14 13 12 11 11 12 12 13 13 12 12 12 12 12 12 12 12 12 11 11 10 9 9 10 10 9 10 10 11 11 12 13 14 15 15 16 17 18 18 18 18 18 18 19 19 19 18 18 17 17 16 16 15 15
2 2 4 4 2 2 3 3 3 4 5 2 1 3 2 5 4 2 2 2 1 1 3 3 2 3 3 2 1 2 7 9 9 9 7 9 10 10 13 15 15 13 13 14 14 13 11 11 11 11 11 13 13 12 12 12 12 12 11 12 12 11 11 10 10 9 9 9 9 10 10 11 11 12 13 14 14 15 16 17 17 18 18 18 18 18 18 18 19 18 17 16 16 16 16 15 15
3 2 5 3 2 2 2 4 2 3 4 2 3 1 3 5 3 5 5 2 2 2 3 4 3 2 2 2 0 1 6 10 11 10 9 10 11 10 12 14 14 13 15 15 14 12 12 11 11 11 9 11 12 12 12 13 12 12 12 12 11 11 11 10 10 9 9 9 9 10 10 10 10 11 12 13 13 14 15 17 18 18 17 17 17 17 17 17 18 17 17 17 17 18 18 18 18
3 3 5 3 1 2 3 2 1 1 3 4 2 2 3 2 3 4 6 4 4 4 1 2 4 2 2 2 1 1 7 12 13 12 10 11 11 12 13 13 13 13 15 16 14 11 12 12 11 11 10 10 11 12 12 12 13 12 13 13 12 11 10 10 9 9 8 9 9 9 10 10 10 10 11 12 12 13 15 16 17 18 18 17 17 17 17 17 18 18 19 19 19 19 20 20 21
3 2 4 4 1 1 3 1 2 4 4 3 2 3 3 1 2 3 5 5 5 3 0 1 2 2 2 3 2 2 9 15 14 14 12 12 12 12 13 13 12 12 16 17 14 12 13 12 12 11 10 10 10 11 13 13 13 13 13 14 13 11 10 10 9 9 9 9 9 9 10 10 10 10 10 11 11 12 14 15 16 18 18 18 18 18 18 18 18 19 19 19 19 20 20 20 20
3 4 4 3 2 1 3 2 2 2 4 4 1 2 4 2 2 3 3 2 1 1 1 2 2 1 2 4 2 1 12 18 15 15 14 13 13 13 12 13 12 11 14 17 15 14 13 13 13 12 11 11 10 10 11 13 14 14 15 15 13 12 11 11 10 10 10 10 9 9 9 10 11 10 10 10 11 12 13 14 15 17 18 18 18 19 19 18 18 19 18 18 19 19 20 20 20
3 4 5 2 3 3 4 4 4 3 4 4 2 3 6 1 2 1 1 3 2 0 2 3 2 1 3 2 1 4 15 19 17 17 16 15 16 15 13 14 15 15 14 14 15 15 14 15 15 14 13 11 11 11 10 11 14 13 14 15 13 13 12 12 12 12 11 11 10 10 10 10 11 11 11 11 11 12 13 13 14 16 17 18 18 19 19 19 20 19 19 19 19 19 20 20 21
4 3 3 2 3 4 6 8 7 4 2 5 4 4 6 3 3 1 0 2 2 1 3 3 3 5 6 3 1 8 18 19 17 18 17 16 16 16 16 17 17 18 17 16 15 14 15 16 15 15 15 13 11 14 13 11 12 11 12 14 15 14 13 13 13 13 12 11 11 11 11 11 11 12 12 11 11 12 13 13 14 15 16 18 18 19 20 20 21 21 21 21 21 20 20 21 22
4 3 3 3 5 5 5 7 6 2 1 5 4 2 4 4 4 3 2 2 3 1 4 3 4 6 6 5 4 11 18 18 17 19 20 19 17 16 16 19 19 19 20 18 16 14 14 14 13 14 15 14 11 13 14 12 12 12 12 14 15 15 15 15 14 13 13 13 12 12 12 12 12 13 13 13 12 12 13 13 13 14 15 16 17 19 20 20 21 21 22 22 21 21 21 22 23
2 4 2 5 6 4 4 6 6 4 3 6 4 2 1 2 3 2 3 1 1 3 5 2 5 9 6 5 8 13 17 18 18 19 21 21 21 20 18 19 20 21 22 21 19 17 15 13 13 14 14 14 12 12 13 14 15 14 14 14 16 17 16 15 14 13 13 14 14 13 13 13 13 14 14 14 13 13 13 13 12 13 14 15 16 18 19 19 20 21 21 21 21 21 22 22 22
2 3 3 4 3 1 3 6 5 4 3 5 5 3 1 2 2 2 5 3 3 6 7 7 9 9 6 5 9 14 16 16 17 18 20 21 21 23 22 22 20 20 21 21 21 20 19 17 16 16 15 13 12 12 13 15 18 18 17 15 15 17 17 16 15 13 14 14 14 14 14 14 14 14 15 15 15 14 14 14 13 13 14 15 14 16 18 17 18 20 19 19 20 21 22 21 21
3 1 3 4 3 2 1 4 4 3 3 4 6 4 3 2 2 2 7 6 5 5 6 8 9 5 4 7 11 12 13 15 16 18 20 22 22 23 24 24 23 21 20 20 20 20 20 19 19 19 17 15 14 14 14 14 15 18 18 15 15 17 17 16 15 14 14 15 16 16 16 16 15 15 15 16 16 15 15 15 15 14 14 14 13 15 17 16 17 18 16 17 18 19 20 21 21
3 1 1 3 2 1 1 1 3 3 5 6 5 4 3 4 1 2 6 9 7 4 4 5 6 5 4 8 11 10 11 15 18 21 21 22 24 24 25 25 25 24 23 22 21 21 21 21 21 21 20 19 18 18 17 13 12 15 16 16 18 18 18 17 17 16 14 15 16 16 16 17 17 16 16 17 18 16 16 16 16 16 14 13 13 16 18 18 18 16 14 17 19 18 19 20 21
5 1 1 2 2 0 2 0 2 3 5 6 3 3 3 4 3 1 5 12 7 3 2 3 5 5 5 7 10 11 13 16 19 21 21 22 23 23 24 24 24 23 23 23 22 22 22 22 22 23 22 22 22 20 18 16 14 14 15 19 20 18 18 20 21 19 16 15 14 14 15 16 18 18 17 18 19 18 17 17 17 17 15 14 15 16 19 19 17 14 15 18 19 20 20 19 19
5 2 2 1 1 2 1 3 3 1 1 1 3 3 2 4 3 0 8 12 7 4 1 0 1 3 6 7 9 11 12 15 18 18 19 20 19 19 21 21 22 22 22 22 22 21 21 21 21 22 23 24 26 25 23 22 20 17 18 22 22 20 21 22 22 21 20 19 16 14 14 15 17 20 20 20 22 21 19 19 19 18 17 16 16 17 19 20 18 17 18 18 18 20 20 19 18
2 3 2 2 1 3 1 3 4 2 0 1 3 1 3 2 1 4 10 8 4 2 1 2 2 4 6 6 8 10 10 14 16 17 19 19 18 19 21 21 21 22 21 20 20 20 19 20 20 21 22 24 25 27 26 24 21 21 23 23 20 22 25 22 19 19 21 23 20 17 17 15 15 17 20 22 23 24 22 21 20 19 18 17 17 18 19 20 21 21 20 18 17 19 20 20 19
3 4 3 3 1 2 2 3 2 2 0 1 3 2 4 2 1 5 5 3 1 2 1 2 1 4 5 5 6 9 10 13 16 15 16 17 20 22 22 22 23 21 20 19 19 18 18 18 19 20 21 22 23 24 25 23 21 21 23 24 21 22 25 22 20 19 20 23 21 19 20 17 13 14 16 19 23 26 25 23 22 20 20 18 17 19 20 20 22 24 22 20 18 19 20 20 21
2 4 4 4 4 1 3 3 1 2 1 1 3 1 4 3 2 6 3 3 2 2 4 3 3 5 4 5 5 6 10 13 14 14 17 20 24 26 25 25 24 22 20 20 18 17 18 18 18 19 20 22 23 24 24 24 23 20 20 23 23 24 23 20 21 20 20 23 20 20 21 17 14 13 14 18 22 27 27 25 23 21 20 19 17 20 22 21 23 25 23 21 21 20 21 22 22
1 2 3 5 7 3 3 1 2 1 2 2 3 1 5 3 8 7 2 2 2 0 5 4 4 5 4 5 4 5 9 11 13 17 21 23 23 24 26 26 24 23 21 19 18 18 18 17 17 18 17 20 23 24 24 24 24 22 22 22 21 24 24 20 20 19 21 23 20 20 20 17 15 14 15 19 22 27 29 27 25 22 21 20 19 22 24 23 23 25 24 23 22 21 22 24 24
1 2 3 3 6 4 4 3 3 1 2 1 1 2 6 8 13 7 3 1 2 2 6 5 5 5 5 5 4 5 8 12 16 20 23 22 22 22 23 24 22 22 20 19 18 17 17 16 15 14 13 16 20 22 22 23 24 22 24 23 20 21 21 18 19 20 22 22 20 20 20 18 18 17 18 19 21 26 28 27 26 23 21 20 21 23 25 26 25 24 24 24 23 22 23 24 24
1 2 2 2 1 3 5 3 1 3 1 3 2 3 6 9 12 6 4 1 3 5 7 5 6 5 5 5 5 6 8 14 18 20 22 22 22 22 22 22 21 21 20 19 18 16 16 14 12 12 11 13 17 20 21 22 23 23 24 23 22 22 19 17 21 24 24 23 23 22 21 19 19 19 20 21 23 25 25 25 25 24 22 20 21 23 25 27 26 25 25 25 25 24 25 25 24
3 1 2 3 1 4 7 2 1 2 1 4 3 4 6 9 10 5 4 1 3 6 7 6 7 6 6 5 6 6 7 13 19 21 23 23 23 23 23 22 21 22 21 19 18 16 15 12 11 11 12 14 16 19 21 22 23 22 20 19 20 22 20 20 24 25 24 24 23 22 21 21 20 19 18 21 24 24 22 21 22 24 22 19 21 24 26 26 25 26 26 25 26 27 27 26 25
4 1 2 2 1 3 5 1 1 0 1 2 1 2 4 6 6 4 2 3 3 4 8 8 8 8 6 5 6 6 7 10 15 22 26 25 25 25 24 22 21 22 21 20 18 17 15 13 11 12 12 14 16 19 21 23 24 22 19 18 19 20 20 21 23 23 21 20 20 19 20 21 21 19 17 19 21 20 19 20 21 21 20 20 23 25 25 24 24 26 28 26 25 28 29 28 27
4 2 1 3 2 1 3 2 2 3 2 1 1 3 7 8 7 7 2 4 3 4 9 9 8 7 6 6 6 7 8 7 12 21 25 25 27 26 25 23 22 21 20 19 18 16 15 14 13 13 14 15 17 19 21 24 26 26 25 25 23 21 20 20 21 19 19 19 18 16 18 20 20 19 19 21 20 18 17 19 20 20 22 24 25 25 24 25 25 25 27 28 26 27 29 28 28
3 2 1 2 2 2 3 3 1 2 2 2 3 5 12 13 11 11 6 4 4 8 9 9 8 8 7 6 7 9 8 9 15 20 20 23 27 27 26 24 23 23 21 19 17 16 16 16 15 15 16 17 19 20 22 23 24 25 24 25 25 24 22 21 18 17 19 21 18 15 16 19 19 21 23 24 22 21 22 23 22 22 24 26 27 27 27 27 27 25 27 29 28 27 27 28 29
6 5 4 3 2 3 5 5 4 1 1 4 6 7 12 13 11 12 7 3 4 9 8 8 9 8 8 8 8 10 9 12 17 18 18 21 25 26 27 26 25 24 22 20 18 17 18 19 18 18 19 20 20 22 23 24 23 22 20 21 24 25 24 23 20 19 21 21 18 15 15 16 19 22 24 23 22 21 24 25 24 24 24 25 27 27 28 27 28 27 27 30 31 30 29 30 31
7 5 4 3 3 4 5 3 5 1 2 6 6 7 12 13 13 13 7 1 4 9 10 11 10 9 9 10 11 11 11 13 13 13 17 20 22 24 26 27 26 25 24 23 21 20 20 21 21 21 22 22 22 23 25 26 24 21 20 22 23 23 24 24 23 23 22 20 17 14 12 13 19 23 22 20 19 19 21 22 23 24 24 25 25 26 27 27 28 28 29 30 32 34 34 31 30
6 5 3 0 3 6 5 2 4 2 2 5 3 5 13 14 13 12 6 4 8 11 12 13 13 11 10 10 13 12 10 10 9 10 14 17 19 22 25 27 28 28 28 26 24 23 22 22 23 23 24 25 25 25 25 26 25 23 24 25 23 22 22 23 24 24 22 20 18 16 13 13 20 24 21 17 17 19 21 21 22 22 23 25 25 26 27 28 30 30 32 34 33 35 35 34 32
4 3 2 2 3 4 5 2 4 1 2 4 4 5 12 13 14 14 9 9 11 11 12 14 12 11 11 11 12 11 10 10 9 9 11 16 19 22 25 28 30 31 30 28 25 24 24 24 25 25 26 27 27 26 27 27 26 25 26 25 24 23 23 23 23 23 22 21 21 19 15 17 23 23 17 15 17 20 22 22 22 23 25 26 27 28 28 30 31 32 35 37 36 35 33 33 29
2 4 4 3 3 1 3 4 3 1 2 2 4 5 9 10 12 14 11 8 9 10 12 13 11 12 15 13 10 9 11 13 11 8 9 14 18 22 26 29 30 30 29 28 27 26 25 26 26 26 27 27 27 27 28 28 26 26 25 24 25 24 24 24 23 23 23 22 22 20 18 21 24 20 15 16 19 21 23 24 23 24 25 26 27 29 31 32 34 35 37 37 37 35 32 29 21
2 4 5 4 4 4 4 4 3 2 2 1 2 6 7 6 8 11 7 4 7 7 8 11 11 13 14 12 10 11 12 12 11 9 8 12 19 24 27 29 29 29 30 31 31 29 27 26 25 27 27 27 28 28 28 28 27 26 24 23 23 22 22 23 23 23 23 23 23 21 20 21 22 19 17 19 20 22 24 26 24 24 26 26 27 29 32 34 35 37 36 35 34 32 31 28 18
4 4 8 9 7 5 3 3 5 4 4 2 1 3 6 4 6 9 5 6 9 5 5 11 12 10 9 9 12 12 11 11 10 9 8 12 19 22 24 26 28 31 33 32 32 30 27 26 25 26 28 28 28 29 29 29 28 28 27 25 24 22 22 24 25 25 24 24 23 22 22 23 22 21 21 22 23 25 26 25 24 25 26 27 28 30 32 35 36 36 35 32 30 27 30 29 22
2 4 7 8 5 5 3 1 2 1 4 3 2 2 6 6 8 11 6 8 12 8 8 12 12 10 8 9 11 9 9 9 7 8 7 11 16 19 23 28 31 32 32 30 29 28 26 26 26 27 28 29 30 31 30 30 29 28 28 27 26 26 26 27 27 26 25 24 24 23 23 24 24 22 24 25 26 27 26 24 24 26 27 28 30 31 33 35 35 35 32 30 27 25 27 29 26
3 3 4 6 7 6 5 5 3 3 3 3 2 3 4 6 8 9 4 7 11 11 12 13 11 12 10 9 10 9 8 7 6 7 8 10 15 20 24 29 31 31 29 28 28 29 27 28 29 30 30 30 31 31 32 31 30 29 29 29 29 29 29 30 29 27 26 25 24 23 23 25 25 23 25 27 27 27 25 25 26 27 27 28 30 31 32 34 34 33 31 28 25 23 24 25 26
4 3 5 6 6 5 5 5 3 1 3 4 2 4 3 7 7 5 2 5 10 12 13 13 11 11 10 9 9 7 7 6 6 7 7 9 15 21 24 26 29 29 28 28 30 31 30 29 30 31 31 32 32 32 33 32 32 31 31 31 30 29 29 29 30 28 27 26 26 25 25 26 26 26 28 28 27 27 26 26 27 27 27 28 29 31 32 32 32 32 30 28 25 23 23 22 23
3 5 7 6 6 5 5 4 3 3 3 4 6 6 3 6 6 4 1 3 8 11 11 10 10 9 8 8 7 6 5 4 5 6 6 10 15 20 22 23 25 27 27 28 29 30 30 29 30 30 31 32 33 33 33 33 33 32 32 31 31 30 28 27 28 28 27 27 27 27 27 27 27 28 29 28 28 28 27 28 28 28 28 28 29 30 31 31 31 30 28 27 24 23 23 22 21
6 6 6 7 5 4 4 2 4 3 4 4 8 10 5 4 6 4 5 5 6 7 7 8 8 8 8 6 5 5 4 4 4 4 5 8 12 15 18 20 22 25 26 27 28 30 31 30 30 31 31 33 33 33 34 33 33 33 32 32 31 31 30 28 28 29 28 28 28 29 29 29 29 29 29 29 29 29 29 29 29 28 28 28 29 29 30 30 29 28 27 25 24 22 23 23 22
6 4 4 4 3 4 4 4 3 2 5 3 5 5 3 4 7 4 6 7 5 6 6 8 8 8 8 4 4 4 3 3 4 3 4 4 6 10 15 18 20 23 25 27 29 30 32 32 32 32 32 33 34 35 35 34 34 33 33 33 32 31 30 29 31 31 31 30 30 30 30 30 30 30 30 30 31 31 31 31 30 29 29 29 29 29 29 29 28 28 27 26 25 24 24 25 25
4 5 5 4 2 3 2 3 0 3 6 3 2 1 1 7 9 8 12 13 11 9 9 10 9 10 9 4 4 4 2 3 3 3 4 4 5 8 13 16 19 23 26 27 29 30 32 32 33 33 33 33 35 35 36 35 35 34 34 33 32 31 30 30 32 32 31 32 32 32 32 32 32 32 32 32 32 32 32 32 31 31 30 29 29 29 29 29 28 28 28 27 27 26 26 26 25
5 6 5 4 2 1 3 3 1 4 5 2 3 2 2 5 7 11 18 18 14 9 9 11 10 12 11 6 4 5 4 4 4 4 5 5 6 9 13 17 20 23 25 27 29 30 31 32 33 33 32 32 34 35 35 35 35 34 34 33 32 32 31 32 33 32 31 32 33 34 34 34 34 34 34 33 33 34 33 32 32 31 30 30 30 29 29 29 29 29 28 28 28 27 26 25 24
5 4 5 5 5 5 5 3 3 5 4 2 2 2 4 4 4 8 12 13 11 7 8 9 9 11 10 7 6 7 7 5 4 5 5 6 8 11 14 17 20 23 25 27 28 29 30 30 32 32 32 32 33 34 35 35 34 34 33 33 33 33 33 33 33 31 31 33 34 34 36 35 34 34 35 34 34 35 34 33 32 31 31 31 30 30 30 30 29 29 29 29 28 27 26 25 25
2 2 4 4 5 5 2 3 5 3 2 3 2 4 5 5 6 9 7 8 9 8 7 7 9 10 7 7 8 7 6 5 5 6 6 7 9 13 15 18 21 23 25 27 28 29 30 30 31 32 32 33 34 35 35 35 34 33 33 33 33 33 33 33 32 31 32 33 34 35 36 35 34 35 36 35 36 36 34 33 33 32 32 31 31 31 30 30 30 30 30 29 28 27 26 25 24
2 2 4 4 3 7 4 2 1 3 2 4 2 5 6 3 7 10 8 8 9 8 8 8 10 8 5 7 8 6 6 5 6 7 6 6 9 14 17 19 21 23 25 28 30 31 32 32 31 31 31 32 34 35 35 34 33 32 32 33 33 33 34 33 32 31 32 34 35 36 37 36 36 37 37 37 37 36 35 34 33 33 32 32 31 31 30 30 30 29 29 28 27 26 25 24 22
6 4 6 3 2 4 4 2 2 2 3 5 2 6 6 3 5 6 5 9 11 10 10 10 8 7 7 9 7 6 6 5 6 6 5 6 9 13 17 20 23 25 27 29 31 31 32 32 32 32 32 33 35 36 35 34 33 33 33 33 34 34 34 33 31 31 32 34 35 36 37 37 37 38 38 39 38 37 35 34 33 33 32 32 31 30 30 29 28 28 27 26 25 25 24 22 21
5 5 4 4 3 2 2 3 3 2 3 4 4 5 5 5 6 4 5 9 12 13 12 9 9 10 10 9 7 5 4 5 6 5 5 5 8 13 17 19 22 25 26 28 29 30 31 32 33 34 34 34 35 36 35 34 34 33 34 34 35 35 34 33 31 31 32 34 35 35 36 37 37 38 39 40 39 37 36 35 34 33 32 32 31 30 29 28 27 26 25 25 24 24 23 22 21
3 1 2 2 2 4 3 3 3 4 3 3 4 5 5 7 7 7 10 12 12 12 9 8 11 11 9 7 6 5 4 5 5 5 5 5 8 14 17 20 23 25 26 27 28 29 31 32 32 32 32 32 33 35 35 34 34 34 34 35 35 35 35 33 32 32 33 35 36 36 36 37 38 39 40 40 39 38 37 36 34 33 33 32 31 30 29 28 26 25 24 23 23 23 22 21 20
4 3 4 3 1 2 1 1 2 4 3 2 2 5 9 7 5 9 12 11 11 10 9 9 10 9 7 7 6 5 5 6 6 5 5 5 8 13 16 18 21 23 25 26 27 29 30 31 32 32 32 32 33 35 36 35 35 35 35 36 36 36 35 34 33 34 35 35 36 36 37 38 39 41 41 40 40 38 37 36 35 34 33 32 31 30 28 27 26 24 23 22 22 22 20 19 18
8 8 8 9 6 4 3 3 1 2 3 4 3 5 12 6 5 8 9 8 9 9 10 10 7 7 7 7 5 6 6 6 5 5 4 4 6 10 13 16 18 20 23 26 27 29 29 31 32 33 34 34 35 35 36 36 35 36 36 36 37 37 36 35 35 35 35 36 36 36 37 38 40 41 41 41 40 39 37 36 35 34 33 32 31 29 28 27 25 24 23 22 22 20 19 18 16
Wind_Direction
318 325 325 13 2 191 12 49 91 333 75 77 303 141 241 221 22 224 228 245 237 250 193 118 132 130 112 136 168 162 146 168 165 137 202 219 116 159 167 150 152 161 161 156 156 155 147 140 133 132 128 125 127 123 118 117 114 113 116 118 116 114 111 106 104 101 98 94 88 84 82 82 78 72 66 63 61 58 55 58 67 70 72 76 77 77 77 80 82 85 86 88 91 90 88 86 84
324 336 34 72 19 147 236 57 100 334 56 94 259 171 257 328 357 214 205 209 201 209 115 121 111 91 70 81 108 123 113 263 181 179 240 139 110 160 166 153 156 160 161 160 159 160 152 144 137 134 129 126 130 126 120 118 116 115 117 119 119 117 114 110 105 102 99 96 93 89 87 85 79 73 68 65 62 60 58 61 69 70 71 76 78 80 80 81 82 85 86 90 92 91 90 87 86
337 347 112 108 17 46 98 39 85 72 73 170 260 226 228 148 221 221 210 203 168 134 97 123 112 82 57 65 83 104 88 299 218 223 220 149 123 164 170 158 162 165 165 164 162 162 155 149 144 139 133 133 135 128 124 120 116 119 122 124 127 122 116 112 105 100 98 96 94 92 89 87 81 75 70 66 63 63 62 64 70 70 71 74 78 80 82 82 83 85 88 92 92 92 92 89 87
353 3 156 152 36 39 60 37 111 124 105 193 259 246 202 185 210 228 230 192 166 102 47 134 105 39 77 124 171 104 136 270 227 195 158 153 137 172 179 163 166 172 172 168 165 163 157 155 149 143 139 137 135 130 126 123 119 123 127 129 135 126 116 113 108 104 101 98 96 93 91 88 82 77 72 67 65 66 65 69 72 70 71 75 77 80 81 83 84 86 90 92 92 91 91 89 87
29 50 109 126 82 52 87 74 106 99 179 183 182 252 226 203 193 201 216 167 199 204 125 131 95 286 65 143 153 143 179 159 213 192 153 146 141 157 174 165 167 174 175 172 167 165 160 158 152 147 145 139 136 134 131 128 127 127 127 129 131 122 113 112 111 108 103 100 100 97 95 89 82 78 73 68 69 69 67 72 76 73 73 76 79 80 81 82 84 87 90 91 91 91 90 88 85
78 70 71 81 83 138 116 89 116 134 224 167 145 257 236 203 186 171 132 342 236 203 178 167 129 162 90 304 204 205 195 125 161 185 159 152 149 150 161 161 167 174 175 176 171 169 166 161 157 151 147 143 141 140 137 135 133 129 126 128 126 118 112 112 111 109 104 104 105 104 99 90 84 80 75 72 72 71 70 75 79 77 76 79 80 81 82 83 85 88 90 90 90 90 89 87 87
128 74 53 73 62 33 99 118 176 193 204 166 185 252 234 209 184 143 144 256 203 153 188 223 142 127 108 297 225 235 230 164 156 167 165 162 157 154 159 156 164 175 173 180 178 172 171 164 159 157 153 151 150 149 146 143 139 136 130 127 124 120 117 114 112 111 109 110 111 108 102 95 89 84 77 74 75 74 72 77 82 79 80 83 83 83 83 84 86 88 89 89 89 90 91 92 93
91 74 13 84 42 22 88 113 182 195 75 227 245 244 238 204 176 138 165 208 196 201 237 219 128 116 141 24 151 219 216 194 171 170 169 163 161 160 163 156 163 176 173 181 185 176 177 171 165 163 161 162 161 159 155 149 145 143 139 132 129 129 126 123 120 118 116 115 114 110 103 98 92 87 80 76 78 77 75 80 84 83 83 84 85 84 84 85 87 88 89 91 95 98 98 96 93
54 45 65 83 76 36 51 57 175 236 267 261 249 247 250 183 166 133 171 233 261 179 177 196 162 139 163 92 239 259 217 191 170 168 162 158 164 163 164 159 164 177 176 181 184 179 184 178 170 168 168 172 170 165 161 153 149 149 147 140 138 138 134 131 129 126 124 119 114 110 103 99 95 89 82 78 80 79 79 81 83 85 86 87 86 85 85 86 88 89 91 96 101 100 99 95 92
35 29 127 80 81 49 20 263 230 247 245 256 255 240 201 170 161 125 171 202 212 158 181 185 122 131 155 161 243 277 182 178 165 163 164 159 158 164 165 161 166 178 178 180 181 186 191 177 170 173 174 175 172 169 166 158 154 154 153 148 144 145 143 140 137 134 128 120 115 109 105 101 97 93 84 80 83 82 82 83 84 84 87 89 89 90 89 89 90 91 94 99 100 98 96 93 91
30 3 93 79 75 106 179 208 257 267 266 287 271 244 197 164 139 101 136 174 186 151 173 162 141 154 146 218 250 152 158 167 167 163 169 158 154 166 165 161 168 179 181 179 180 191 192 172 174 186 180 173 174 177 174 166 162 159 159 153 149 151 151 149 145 140 131 122 116 111 109 105 99 97 90 83 86 87 84 84 86 85 87 89 90 93 93 93 92 93 96 98 96 93 91 89 88
72 343 60 89 125 175 191 173 243 282 310 326 186 256 184 144 128 163 178 173 182 221 225 187 168 147 137 290 251 168 161 166 168 165 172 158 156 165 162 163 169 177 186 185 184 192 193 179 183 194 185 177 180 182 177 173 170 168 165 158 157 160 159 156 153 145 134 126 120 117 114 110 105 101 95 88 89 91 88 86 87 87 89 90 91 94 94 95 94 94 97 95 91 88 87 87 87
112 153 86 102 159 160 152 146 251 317 327 269 190 243 143 144 181 197 165 145 160 158 249 200 155 120 160 249 202 190 176 170 166 166 175 162 159 160 159 167 171 177 184 186 186 191 194 189 189 191 187 187 190 186 181 178 176 175 168 164 167 168 165 161 156 149 139 131 126 124 121 117 113 107 101 93 94 96 93 91 90 89 91 93 94 95 95 95 95 94 94 91 89 89 88 88 86
127 149 106 116 107 129 147 132 234 177 249 258 203 160 158 182 211 185 147 153 207 180 250 193 154 148 191 221 193 247 184 170 164 164 168 165 161 159 165 172 176 182 179 180 186 193 197 197 195 192 187 191 195 187 184 180 178 179 172 173 176 173 171 167 161 155 146 137 133 130 127 125 121 116 111 101 101 104 101 97 94 94 93 94 94 94 95 96 96 96 94 93 93 92 90 88 86
124 124 87 107 69 97 171 164 158 159 228 226 152 155 154 247 155 156 164 169 228 210 80 174 166 190 194 173 183 237 177 169 164 160 160 166 165 160 170 177 179 180 176 179 186 188 191 198 199 198 194 192 195 190 187 182 181 183 178 180 180 174 176 173 168 164 156 145 141 140 136 134 131 127 121 111 109 111 110 104 99 99 97 95 94 94 95 96 97 97 97 96 95 93 90 88 86
115 114 70 91 132 184 184 177 119 132 246 211 169 164 139 285 153 163 221 150 202 288 21 201 188 204 178 165 183 184 165 166 163 160 160 166 172 169 170 177 179 174 174 182 189 194 190 190 193 199 197 189 195 198 196 188 186 188 183 184 181 176 181 178 175 173 165 154 149 148 146 143 140 137 132 121 116 116 116 111 105 105 102 99 95 94 95 96 96 95 95 94 92 92 91 91 89
68 79 70 90 159 196 185 175 172 165 240 232 255 197 146 265 255 187 273 83 126 226 327 246 225 210 192 168 147 167 164 164 162 162 163 164 169 173 174 179 181 179 186 189 192 204 201 194 197 204 206 202 207 206 203 194 192 195 185 183 183 181 185 183 181 180 172 163 160 159 155 151 148 146 140 130 123 121 122 117 112 111 107 102 98 96 95 95 94 93 92 91 90 91 92 92 92
58 76 101 153 176 200 188 178 190 169 197 205 211 187 148 183 222 165 120 35 25 300 288 277 282 251 226 222 120 160 164 163 165 165 166 166 167 168 173 181 181 179 190 198 193 196 196 194 198 206 213 219 215 199 197 199 198 201 191 188 186 186 190 189 189 187 180 174 170 167 165 161 156 154 147 139 128 125 129 127 120 116 111 104 100 98 96 95 93 92 91 90 90 91 92 91 92
85 107 114 205 195 204 197 173 180 174 169 172 176 173 160 187 174 141 207 303 2 290 273 304 298 268 229 210 170 163 165 167 172 172 169 172 175 173 172 180 186 183 190 202 197 189 190 193 197 209 219 221 214 190 187 197 202 200 195 196 192 191 194 192 195 195 186 182 179 174 171 170 166 160 153 147 136 132 138 138 128 118 112 106 102 99 98 96 95 93 92 91 91 89 89 90 92
131 114 126 232 209 214 217 179 185 205 163 144 160 161 171 215 165 156 198 233 351 228 241 228 251 254 221 188 169 166 171 173 179 181 177 178 183 186 183 181 186 189 192 202 205 205 209 213 214 221 226 219 213 198 193 201 202 197 196 204 200 195 198 196 197 199 191 186 183 179 176 177 174 164 159 155 146 144 147 145 134 123 115 109 104 101 100 98 97 97 94 92 91 89 88 89 91
119 108 170 223 196 165 206 195 196 200 165 143 145 123 170 227 171 162 157 164 264 242 228 212 228 236 209 184 173 171 177 181 186 189 187 185 188 192 196 195 193 193 193 200 206 213 220 226 228 225 219 208 208 209 213 209 196 192 195 206 205 198 199 198 198 197 192 189 186 183 181 182 180 170 165 162 158 155 154 152 144 133 121 114 110 107 104 101 100 98 95 91 90 89 88 87 87
78 60 185 191 162 98 192 207 193 168 126 115 129 150 185 157 136 166 160 188 237 230 216 214 227 221 183 184 178 175 182 189 194 197 196 193 193 194 198 201 203 204 204 205 208 213 217 221 222 218 211 206 214 216 217 207 187 188 195 202 206 204 203 201 200 199 193 189 191 189 185 184 180 177 172 166 167 165 161 159 151 143 131 124 123 119 116 113 108 101 96 98 97 93 90 89 86
94 330 229 207 196 79 2 236 193 152 125 141 160 176 142 114 214 194 182 220 226 207 202 211 242 240 198 175 171 178 189 196 201 203 201 198 198 197 198 200 202 206 209 212 215 217 219 220 219 218 213 209 214 215 215 208 189 194 203 207 207 204 204 209 207 204 200 194 196 195 191 189 181 181 180 171 175 176 170 167 158 152 144 139 139 132 126 122 115 106 105 108 106 101 97 94 90
90 120 290 205 186 284 323 10 160 143 149 184 182 135 127 165 207 77 219 239 237 229 239 238 259 240 200 170 176 192 196 200 207 209 207 205 205 202 202 202 202 205 207 209 213 215 218 220 220 220 219 216 213 214 221 222 216 214 213 214 212 205 205 214 212 205 204 201 201 198 196 198 185 182 188 180 181 184 179 173 166 161 157 155 152 142 136 130 123 120 121 117 112 108 103 98 95
69 140 226 142 143 303 322 86 83 93 165 187 119 125 210 205 174 299 244 244 248 253 304 299 221 171 184 188 196 200 200 207 212 214 213 213 211 208 207 205 204 205 206 208 210 213 215 217 218 219 220 220 218 219 224 228 231 229 227 219 210 210 215 217 209 202 204 203 202 203 205 206 190 185 192 189 186 187 185 180 172 169 167 164 159 153 148 140 133 131 127 120 116 114 109 106 101
135 145 178 121 22 330 39 88 47 14 326 85 132 137 297 253 178 267 255 253 258 236 60 42 115 154 196 205 208 204 205 211 211 212 214 214 213 212 211 207 207 208 208 209 210 214 216 218 221 220 220 221 220 223 224 226 228 226 229 223 212 217 218 214 208 206 210 202 197 206 211 210 200 192 192 194 193 189 188 184 177 176 173 169 167 162 154 145 139 137 132 124 123 121 116 114 109
143 127 137 97 35 326 81 118 25 353 39 107 182 243 303 321 321 257 268 318 355 179 226 335 163 207 223 221 225 215 217 218 212 211 211 212 213 215 215 211 213 212 211 213 215 219 223 227 229 228 226 223 220 222 220 217 217 221 224 219 220 224 213 207 213 218 217 202 199 207 203 202 205 203 196 197 201 193 189 187 181 181 178 172 172 167 158 152 146 142 137 131 132 129 123 120 116
99 123 134 16 359 19 60 108 13 355 143 164 149 226 305 2 267 238 269 343 352 196 234 284 251 249 249 239 245 226 229 227 219 214 210 211 213 215 216 215 216 216 217 219 223 227 231 236 238 239 234 225 219 217 216 212 212 221 223 217 218 215 208 208 214 223 220 205 204 206 196 194 204 214 207 203 206 197 191 188 183 185 184 174 174 172 164 158 150 144 140 137 138 135 130 127 123
97 110 142 330 358 18 356 24 314 339 151 197 132 314 286 228 229 241 313 334 18 320 249 272 260 261 267 254 260 241 239 233 223 222 220 218 218 218 219 219 219 220 222 224 229 234 239 243 242 243 234 221 215 211 214 213 212 218 216 219 221 208 205 208 207 218 217 202 198 201 198 197 208 223 217 208 207 198 191 189 185 186 187 176 172 174 167 159 153 147 143 141 141 139 135 132 127
283 33 92 342 5 350 323 7 327 173 147 307 120 263 268 242 244 256 338 294 88 288 258 263 261 264 268 260 265 257 246 235 229 228 228 226 224 224 224 223 222 222 225 227 232 238 243 247 242 238 225 212 208 206 211 210 212 217 209 214 225 209 201 205 209 214 212 203 201 205 206 204 212 223 216 207 203 195 191 189 185 184 183 175 171 173 168 161 157 153 148 144 143 142 138 134 129
31 13 45 26 34 277 301 348 2 158 160 9 101 236 268 266 265 277 321 258 168 251 258 258 260 262 264 264 261 258 249 238 238 237 235 232 227 227 227 224 222 222 225 227 233 239 245 247 235 226 217 206 201 201 206 207 212 214 205 208 219 213 209 219 223 219 214 212 213 214 212 210 214 215 209 202 196 193 191 187 184 179 174 171 171 173 170 164 160 156 153 148 143 143 138 134 130
38 19 316 355 152 269 308 332 145 159 332 24 112 236 275 270 271 298 329 55 152 249 263 267 263 260 258 259 255 257 260 250 249 247 241 236 231 228 227 224 222 222 224 227 232 236 239 239 222 215 215 206 201 200 203 206 208 203 198 206 216 213 217 227 221 215 214 211 212 213 212 212 209 204 204 200 190 186 188 186 182 172 165 169 173 174 171 167 162 155 153 153 149 144 140 137 132
359 63 226 271 167 285 317 342 282 258 29 12 160 235 279 275 277 314 354 118 134 257 270 269 259 259 255 251 253 254 263 262 256 250 242 237 234 230 228 225 223 223 225 227 231 233 229 224 214 211 212 206 203 202 202 204 204 204 210 217 218 211 216 220 206 201 206 204 205 209 211 210 201 193 196 198 189 183 187 188 179 169 166 173 174 173 172 169 165 157 152 155 157 149 143 139 133
317 26 207 240 195 235 299 306 325 26 69 236 260 241 253 267 279 291 287 140 152 250 265 268 262 260 253 248 254 251 253 257 253 247 240 234 233 231 228 225 223 223 224 226 230 231 219 212 209 206 208 206 203 202 203 204 203 207 210 205 206 209 211 207 194 193 200 198 197 201 206 203 197 195 194 195 195 193 194 191 185 179 177 176 173 174 175 170 167 164 157 154 157 153 146 141 137
193 172 165 254 246 225 265 276 275 25 39 253 272 266 260 267 275 278 271 152 187 249 258 268 271 266 259 252 250 249 247 248 248 246 240 235 232 229 226 222 221 220 221 222 226 224 208 203 205 203 206 204 202 202 202 202 200 199 197 192 197 205 208 204 198 200 197 192 189 195 205 204 203 204 199 196 198 199 195 191 189 184 178 176 175 174 173 169 167 168 163 155 152 152 149 146 140
152 167 143 159 209 248 241 249 270 261 74 263 247 251 265 270 271 274 277 151 205 259 268 269 267 263 261 253 249 249 244 245 250 249 242 237 232 228 224 220 218 218 218 218 220 215 201 199 202 203 205 202 203 201 198 198 195 192 194 196 197 199 203 204 202 202 196 189 187 194 207 213 211 203 197 194 194 195 189 184 181 178 178 179 177 173 171 171 170 169 166 160 153 146 145 145 142
114 119 104 146 195 269 254 250 296 276 177 260 245 251 270 271 269 269 272 232 245 262 266 264 258 254 254 250 251 248 243 249 256 251 239 234 231 227 222 217 213 212 213 213 213 209 200 200 202 203 204 203 204 203 198 195 191 190 193 193 193 193 197 198 196 195 192 189 189 192 202 215 207 191 183 182 182 186 183 179 179 178 181 182 179 177 175 175 174 172 166 162 158 147 141 141 143
90 119 104 203 213 254 255 227 306 317 181 269 294 287 272 268 271 271 258 242 251 249 251 259 255 251 250 247 251 249 249 257 254 241 230 222 222 220 216 213 210 208 208 208 209 206 200 202 205 206 206 204 205 207 203 198 197 201 197 191 192 193 194 194 191 187 185 188 189 188 195 207 195 179 173 179 184 190 189 186 187 185 184 183 182 180 179 179 177 175 167 158 155 151 144 143 144
82 112 122 270 248 268 282 306 331 352 183 270 320 299 271 271 276 273 257 240 247 242 239 251 254 255 253 244 247 251 256 259 247 233 220 214 213 212 211 210 209 209 208 207 206 202 200 203 205 207 208 205 204 206 205 201 201 205 200 194 193 190 189 190 190 187 185 188 186 186 197 200 189 179 181 194 196 198 199 195 192 191 189 188 186 182 180 180 176 175 170 161 154 150 148 149 151
101 131 141 240 258 285 282 296 331 330 196 269 313 300 275 273 276 273 262 246 256 253 245 253 252 250 254 252 251 248 250 253 249 234 211 208 208 207 208 208 208 207 205 205 203 199 199 201 202 203 206 206 203 203 203 201 199 200 197 193 190 187 187 188 189 190 188 187 184 185 194 193 189 190 195 201 201 202 202 197 192 192 191 192 193 186 180 178 175 172 170 167 161 154 151 157 161
252 185 171 203 227 213 234 285 322 326 347 335 304 307 288 275 271 270 282 303 281 261 250 260 253 244 252 263 262 247 244 250 249 236 205 200 206 207 208 208 206 204 205 206 203 200 199 199 199 201 205 205 203 202 202 199 195 193 190 185 184 184 184 185 188 189 187 186 185 185 191 193 195 200 202 204 205 202 197 193 194 195 193 193 194 190 181 178 176 173 172 172 170 164 161 163 167
286 234 202 208 210 202 224 352 7 353 336 327 342 290 282 307 285 262 283 308 282 271 259 262 261 252 245 254 258 249 245 248 248 241 212 202 208 209 209 207 205 205 207 208 205 201 198 197 197 200 204 205 203 202 202 201 196 193 190 183 181 179 179 186 191 191 189 189 189 189 192 196 200 203 205 207 205 198 193 194 198 198 194 192 191 188 182 178 176 176 177 176 176 175 170 166 166
294 252 208 205 174 156 176 93 45 292 273 287 86 212 270 311 291 268 276 283 277 289 281 266 268 266 247 242 252 252 249 247 247 242 218 207 207 205 207 207 206 207 208 206 202 199 197 196 198 200 204 206 205 203 202 203 199 198 200 198 196 194 193 195 196 195 194 194 194 194 194 196 198 202 205 203 198 194 195 198 199 196 193 191 189 185 181 178 178 177 179 180 179 180 177 172 168
246 247 157 158 155 170 178 152 180 233 271 290 123 149 272 290 274 271 285 286 285 289 277 267 263 262 256 251 252 251 251 247 243 238 222 212 208 205 207 208 208 208 206 202 200 198 197 198 200 202 204 206 207 205 203 204 205 205 207 206 206 206 205 200 195 195 196 196 196 196 196 195 194 198 201 197 193 194 198 199 195 192 191 189 186 183 180 179 179 178 180 183 183 184 186 183 176
247 206 124 134 148 157 138 129 175 319 350 299 191 145 263 272 273 287 288 282 285 280 273 270 265 261 258 257 258 257 256 250 241 237 228 218 213 211 212 211 209 207 203 201 200 199 199 199 200 201 202 205 208 207 206 206 209 211 210 207 206 204 202 198 195 195 195 195 195 195 195 194 193 197 197 194 193 196 198 195 191 190 189 186 184 182 180 180 180 181 182 184 186 187 191 194 187
196 136 102 83 82 84 89 111 120 61 329 263 189 167 218 272 281 294 263 253 263 265 271 270 267 268 261 257 265 272 275 269 252 244 239 228 222 219 216 212 208 204 202 201 200 198 198 198 199 199 201 205 207 208 209 209 210 211 209 207 205 201 198 197 195 194 191 191 192 193 194 195 196 197 195 193 194 194 193 192 190 189 187 185 183 183 181 181 182 184 185 186 189 190 191 197 196
139 116 81 60 44 45 59 57 83 72 288 248 192 189 183 272 274 247 230 223 214 234 266 274 276 280 270 262 263 264 275 282 265 258 256 241 231 222 213 208 204 201 199 199 198 197 198 198 198 199 201 204 207 208 209 210 211 211 209 207 203 200 200 199 195 192 189 189 191 192 193 196 197 196 194 193 192 191 191 190 190 189 187 185 184 184 184 182 183 186 187 188 191 192 189 191 191
110 97 90 77 356 10 31 350 51 118 253 247 217 208 156 239 256 244 248 250 221 211 244 264 272 275 269 260 255 252 254 269 265 256 252 231 214 209 204 202 198 195 195 196 197 197 197 199 199 199 201 204 207 208 208 209 209 210 210 207 205 205 205 205 200 195 193 192 193 194 193 194 195 193 192 192 191 191 190 189 189 188 187 185 184 184 183 182 183 184 186 187 187 187 185 184 183
90 102 108 102 336 355 350 296 128 217 247 222 194 220 195 242 260 269 265 263 248 225 232 248 259 268 268 251 245 260 252 249 252 236 229 210 198 197 196 196 194 193 194 195 195 196 197 199 200 200 202 203 205 207 206 207 208 209 209 208 209 210 210 208 204 199 197 196 196 196 195 194 194 193 191 192 191 191 190 189 188 188 187 186 184 183 181 181 181 182 183 184 184 184 183 183 183
158 148 140 138 139 182 246 259 266 264 265 211 162 158 254 266 272 254 249 254 251 232 233 243 249 261 268 268 260 270 266 245 238 231 222 214 209 202 197 196 194 195 196 195 195 196 198 200 201 202 203 203 205 206 205 206 208 210 209 209 211 212 211 209 205 202 201 200 199 199 199 197 198 197 194 193 192 190 190 189 188 188 187 185 183 182 181 180 181 182 183 184 184 185 184 184 183
183 162 139 158 166 176 212 215 210 251 282 273 203 179 197 211 257 246 239 258 269 255 247 254 257 258 267 282 274 265 264 253 242 239 231 223 213 205 201 199 198 197 197 196 196 197 199 201 203 203 204 203 204 206 206 206 208 210 210 211 212 213 213 209 206 205 205 203 202 201 201 199 202 203 198 195 193 190 189 188 187 188 186 184 183 182 182 181 182 184 185 185 185 184 182 182 180
211 120 116 193 196 152 157 196 178 186 316 303 228 220 213 207 273 273 249 267 277 268 268 268 264 261 264 271 264 257 258 251 243 242 237 228 215 208 205 201 201 199 197 197 198 198 200 202 204 205 205 205 206 207 207 208 209 210 211 212 213 214 211 207 206 207 207 206 204 203 202 201 204 204 199 195 192 190 189 189 188 188 186 185 184 183 183 183 184 186 186 185 183 181 180 178 175
160 142 178 210 172 117 115 232 106 84 265 274 230 247 276 313 286 268 251 265 275 278 277 258 254 267 270 260 256 256 258 244 236 238 232 221 211 208 208 204 202 200 198 199 200 201 201 202 203 204 205 206 207 208 208 208 209 210 212 212 213 213 209 208 209 210 211 208 205 203 203 202 203 202 197 193 192 190 190 190 189 188 186 185 185 184 185 185 185 187 186 184 181 179 178 176 173
131 184 204 169 104 98 112 201 347 44 243 270 268 250 274 296 276 278 261 260 265 266 262 256 264 272 259 256 252 245 252 252 249 247 236 222 211 209 209 207 206 203 202 202 202 203 203 203 203 203 204 205 207 208 208 209 209 210 212 212 212 211 210 210 213 215 214 210 206 204 204 203 201 199 195 192 191 191 190 190 190 189 187 186 186 186 186 186 187 187 186 184 182 179 178 176 173
134 193 191 118 153 199 112 165 202 218 240 273 290 281 266 218 234 257 217 227 241 247 252 259 266 257 250 259 254 231 237 255 258 250 237 225 215 213 209 208 209 207 206 206 204 204 204 204 205 205 206 207 207 209 209 209 210 211 212 212 211 211 211 213 215 216 214 210 207 207 207 205 200 196 194 192 192 192 191 191 190 190 189 188 187 187 188 188 188 188 186 185 184 181 180 177 174
66 111 122 100 164 181 169 160 173 195 217 252 301 313 271 216 203 196 205 216 220 229 245 253 251 245 240 250 245 212 212 236 242 237 233 225 218 217 212 209 209 208 208 208 205 205 205 205 206 206 207 208 208 209 209 208 210 211 211 211 211 211 212 214 216 216 214 211 209 208 208 206 201 195 194 194 194 193 193 192 191 191 191 190 189 189 189 189 190 190 189 189 188 185 185 182 177
152 163 175 191 165 121 184 188 127 149 172 200 262 288 268 239 185 187 208 219 212 210 224 234 244 245 233 237 233 205 209 227 231 228 227 224 222 221 218 215 213 210 209 208 206 207 207 207 206 206 206 206 208 209 209 209 209 209 210 210 211 212 212 214 215 215 214 212 210 209 207 205 201 197 195 195 195 194 194 194 193 193 193 192 192 191 191 192 192 192 192 194 193 190 190 189 183
178 186 194 196 180 151 190 235 217 121 148 182 174 259 270 255 176 194 207 215 216 213 219 229 246 249 235 238 239 222 220 226 228 230 222 214 218 219 217 216 214 211 209 208 207 207 207 207 207 207 207 207 208 208 208 209 209 210 211 211 212 213 213 213 213 214 214 212 210 209 207 204 201 198 197 197 197 196 195 195 195 195 195 195 194 193 193 194 194 195 196 198 197 195 195 195 192